Location: Newark
(52.8300°N, 8.0000°E)
Time: 06:34:32
(UTC+00:00)

STARLINK-1110 - Pass Details

Date: 01 February 2020
Orbit: 348 x 351 km, 53.0° (Epoch: 24 February)

Event Time Altitude Azimuth Distance (km) Brightness Sun altitude
Rises 17:21:55 0° 283° (WNW) 2,179 7.9 -10.7°
Reaches altitude 10° 17:24:12 10° 267° (W) 1,332 7.1 -11.0°
Maximum altitude 17:26:34 22° 214° (SSW) 849 5.2 -11.3°
Drops below altitude 10° 17:28:55 10° 161° (SSE) 1,326 5.5 -11.7°
Enters shadow 17:31:12 - 145° (SE) 2,170 6.4 -12.0°
